STARLINK-1664 (46553 NORAD) Tracking and Keplerian Element Data

This shows tracking and keplerian element data for the satellite.

Feedback or suggestion? Click here.




ElementValue
Catalog46553
NameSTARLINK-1664
Epoch Orbit966
Epoch Day336.91667824
Epoch Year2020
RAAN165.2303
Inclination52.9994
Eccentricity0.0002288
Argument of Perigee27.0552
Mean Anonmoly14.889
Mean Motion15.6273203
Decay Rate0.00018648
L11 46553U 20070X 20336.91667824 .00018648 00000-0 20919-3 0 9990
L22 46553 52.9994 165.2303 0002288 27.0552 14.8890 15.62732030 9664

Live tracking and technical data element details for STARLINK-1664 (NORAD 46553). STARLINK-1664 can be tracked NOW for your location showing map with azimuth and elevation plus other details from your city location.

Track the satellite on the map from your city or location and see movement details for azimuth, elevation, latitude, longitude, range, height, and movement on the map or in text.







IsCatalogInMostPopularTable: catalog: 46553, numindb: 15
Update: records affected: 1



GetName: 46553 STARLINK-1664

Hit Count: updated at: Wed, 02 Dec 2020 19:37:44 GMT